Time,TemperatureF,DewpointF,PressureIn,WindDirection,WindDirectionDegrees,WindSpeedMPH,WindSpeedGustMPH,Humidity,HourlyPrecipIn,Conditions,Clouds,dailyrainin,SolarRadiationWatts/m^2,SoftwareType,DateUTC
2013-02-12 00:01:00,42.3,40.0,30.09,NE,46,1.0,1.0,92,0.00,,,0.00,0,weatherlink.com 1.10,2013-02-12 05:01:00,
2013-02-12 00:16:00,41.0,39.0,30.07,NNW,346,0.0,0.0,93,0.00,,,0.00,0,weatherlink.com 1.10,2013-02-12 05:16:00,
2013-02-12 00:31:00,41.1,40.0,30.08,NNW,347,0.0,2.0,94,0.00,,,0.00,0,weatherlink.com 1.10,2013-02-12 05:31:00,
2013-02-12 00:46:00,40.7,39.0,30.07,North,360,2.0,4.0,94,0.00,,,0.00,0,weatherlink.com 1.10,2013-02-12 05:46:00,
2013-02-12 01:01:00,40.1,39.0,30.08,North,9,3.0,4.0,95,0.00,,,0.00,0,weatherlink.com 1.10,2013-02-12 06:01:00,
2013-02-12 01:16:00,39.2,38.0,30.08,North,11,3.0,4.0,94,0.00,,,0.00,0,weatherlink.com 1.10,2013-02-12 06:16:00,
2013-02-12 01:31:00,39.5,39.0,30.08,NW,313,1.0,3.0,96,0.00,,,0.00,0,weatherlink.com 1.10,2013-02-12 06:31:00,
2013-02-12 01:46:00,39.2,38.0,30.08,ENE,65,1.0,3.0,95,0.00,,,0.00,0,weatherlink.com 1.10,2013-02-12 06:46:00,
2013-02-12 02:01:00,39.3,38.0,30.07,NNW,342,2.0,3.0,96,0.00,,,0.00,0,weatherlink.com 1.10,2013-02-12 07:01:00,
2013-02-12 02:16:00,39.1,38.0,30.09,NNE,21,0.0,3.0,95,0.00,,,0.00,0,weatherlink.com 1.10,2013-02-12 07:16:00,
2013-02-12 02:31:00,38.9,38.0,30.08,South,180,0.0,3.0,95,0.00,,,0.00,0,weatherlink.com 1.10,2013-02-12 07:31:00,
2013-02-12 02:46:00,39.0,38.0,30.07,NNW,329,4.0,6.0,96,0.00,,,0.00,0,weatherlink.com 1.10,2013-02-12 07:46:00,
2013-02-12 03:04:00,39.1,38.0,30.07,NNW,338,0.0,3.0,95,0.00,,,0.00,0,weatherlink.com 1.10,2013-02-12 08:04:00,
2013-02-12 03:16:00,38.9,38.0,30.07,NNW,338,1.0,1.0,96,0.00,,,0.00,0,weatherlink.com 1.10,2013-02-12 08:16:00,
2013-02-12 03:31:00,38.2,37.0,30.07,NNW,338,0.0,2.0,95,0.00,,,0.00,0,weatherlink.com 1.10,2013-02-12 08:31:00,
2013-02-12 03:46:00,38.1,37.0,30.09,NNW,338,0.0,0.0,96,0.00,,,0.00,0,weatherlink.com 1.10,2013-02-12 08:46:00,
2013-02-12 04:02:00,37.5,36.0,30.09,NNW,338,1.0,3.0,94,0.00,,,0.00,0,weatherlink.com 1.10,2013-02-12 09:02:00,
2013-02-12 04:16:00,36.8,36.0,30.07,NW,322,0.0,3.0,95,0.00,,,0.00,0,weatherlink.com 1.10,2013-02-12 09:16:00,
2013-02-12 04:31:00,37.0,36.0,30.07,NE,51,0.0,3.0,95,0.00,,,0.00,0,weatherlink.com 1.10,2013-02-12 09:31:00,
2013-02-12 04:46:00,36.8,35.0,30.09,NNW,345,2.0,5.0,94,0.00,,,0.00,0,weatherlink.com 1.10,2013-02-12 09:46:00,
2013-02-12 05:01:00,36.7,35.0,30.06,NW,326,0.0,5.0,94,0.00,,,0.00,0,weatherlink.com 1.10,2013-02-12 10:01:00,
2013-02-12 05:16:00,36.1,35.0,30.07,South,179,0.0,2.0,94,0.00,,,0.00,0,weatherlink.com 1.10,2013-02-12 10:16:00,
2013-02-12 05:32:00,35.5,34.0,30.08,NNW,331,4.0,4.0,94,0.00,,,0.00,0,weatherlink.com 1.10,2013-02-12 10:32:00,
2013-02-12 05:47:00,34.5,33.0,30.07,North,11,1.0,6.0,95,0.00,,,0.00,0,weatherlink.com 1.10,2013-02-12 10:47:00,
2013-02-12 06:02:00,34.7,34.0,30.07,ENE,74,2.0,3.0,96,0.00,,,0.00,0,weatherlink.com 1.10,2013-02-12 11:02:00,
2013-02-12 06:17:00,34.4,33.0,30.08,ENE,63,0.0,1.0,96,0.00,,,0.00,0,weatherlink.com 1.10,2013-02-12 11:17:00,
2013-02-12 06:32:00,34.8,34.0,30.11,East,88,0.0,1.0,96,0.00,,,0.00,0,weatherlink.com 1.10,2013-02-12 11:32:00,
2013-02-12 06:47:00,34.7,34.0,30.11,NNE,15,0.0,3.0,96,0.00,,,0.00,0,weatherlink.com 1.10,2013-02-12 11:47:00,
2013-02-12 07:02:00,34.6,34.0,30.10,East,96,1.0,3.0,96,0.00,,,0.00,0,weatherlink.com 1.10,2013-02-12 12:02:00,
2013-02-12 07:17:00,35.1,34.0,30.10,NNE,16,1.0,4.0,96,0.00,,,0.00,0,weatherlink.com 1.10,2013-02-12 12:17:00,
2013-02-12 07:32:00,35.3,34.0,30.10,North,5,2.0,3.0,96,0.00,,,0.00,9,weatherlink.com 1.10,2013-02-12 12:32:00,
2013-02-12 07:47:00,35.0,34.0,30.12,NNE,26,0.0,0.0,96,0.00,,,0.00,12,weatherlink.com 1.10,2013-02-12 12:47:00,
2013-02-12 08:02:00,35.2,34.0,30.12,NNE,26,0.0,0.0,96,0.00,,,0.00,28,weatherlink.com 1.10,2013-02-12 13:02:00,
2013-02-12 08:17:00,35.5,35.0,30.12,East,86,5.0,5.0,96,0.00,,,0.00,37,weatherlink.com 1.10,2013-02-12 13:17:00,
2013-02-12 08:32:00,36.4,35.0,30.11,NNE,29,1.0,5.0,95,0.00,,,0.00,51,weatherlink.com 1.10,2013-02-12 13:32:00,
2013-02-12 08:47:00,37.1,36.0,30.11,North,5,0.0,3.0,94,0.00,,,0.00,53,weatherlink.com 1.10,2013-02-12 13:47:00,
2013-02-12 09:02:00,38.8,36.0,30.11,North,5,1.0,2.0,91,0.00,,,0.00,301,weatherlink.com 1.10,2013-02-12 14:02:00,
2013-02-12 09:17:00,41.8,36.0,30.11,NNE,21,1.0,2.0,81,0.00,,,0.00,341,weatherlink.com 1.10,2013-02-12 14:17:00,
2013-02-12 09:32:00,42.6,36.0,30.11,West,281,3.0,4.0,76,0.00,,,0.00,383,weatherlink.com 1.10,2013-02-12 14:32:00,
2013-02-12 09:47:00,43.3,34.0,30.09,NE,39,1.0,4.0,71,0.00,,,0.00,417,weatherlink.com 1.10,2013-02-12 14:47:00,
2013-02-12 10:02:00,45.0,36.0,30.10,ESE,123,3.0,4.0,70,0.00,,,0.00,459,weatherlink.com 1.10,2013-02-12 15:02:00,
2013-02-12 10:17:00,45.2,36.0,30.09,SW,219,2.0,3.0,69,0.00,,,0.00,499,weatherlink.com 1.10,2013-02-12 15:17:00,
2013-02-12 10:33:00,45.9,36.0,30.08,SSE,159,1.0,2.0,68,0.00,,,0.00,504,weatherlink.com 1.10,2013-02-12 15:33:00,
2013-02-12 10:47:00,47.3,36.0,30.07,NNW,345,2.0,6.0,64,0.00,,,0.00,559,weatherlink.com 1.10,2013-02-12 15:47:00,
2013-02-12 11:03:00,48.4,36.0,30.07,SSW,196,2.0,3.0,62,0.00,,,0.00,473,weatherlink.com 1.10,2013-02-12 16:03:00,
2013-02-12 11:18:00,48.1,34.0,30.06,ESE,104,0.0,5.0,59,0.00,,,0.00,302,weatherlink.com 1.10,2013-02-12 16:18:00,
2013-02-12 11:33:00,48.5,32.0,30.08,WNW,283,0.0,3.0,54,0.00,,,0.00,329,weatherlink.com 1.10,2013-02-12 16:33:00,
2013-02-12 11:48:00,48.3,34.0,30.08,NNW,331,3.0,6.0,59,0.00,,,0.00,269,weatherlink.com 1.10,2013-02-12 16:48:00,
2013-02-12 12:03:00,48.6,34.0,30.08,NW,322,4.0,5.0,58,0.00,,,0.00,243,weatherlink.com 1.10,2013-02-12 17:03:00,
2013-02-12 12:18:00,49.0,33.0,30.08,NNW,342,3.0,5.0,54,0.00,,,0.00,251,weatherlink.com 1.10,2013-02-12 17:18:00,
2013-02-12 12:33:00,49.3,36.0,30.06,NW,323,2.0,4.0,60,0.00,,,0.00,239,weatherlink.com 1.10,2013-02-12 17:33:00,
2013-02-12 12:48:00,49.4,35.0,30.05,NNW,333,4.0,5.0,59,0.00,,,0.00,229,weatherlink.com 1.10,2013-02-12 17:48:00,
2013-02-12 13:04:00,49.6,36.0,30.05,NNW,339,3.0,5.0,59,0.00,,,0.00,218,weatherlink.com 1.10,2013-02-12 18:04:00,
2013-02-12 13:18:00,50.0,36.0,30.05,NW,304,1.0,3.0,58,0.00,,,0.00,193,weatherlink.com 1.10,2013-02-12 18:18:00,
2013-02-12 13:33:00,50.0,34.0,30.05,NW,313,2.0,3.0,55,0.00,,,0.00,172,weatherlink.com 1.10,2013-02-12 18:33:00,
2013-02-12 13:48:00,50.1,36.0,30.03,NW,308,1.0,3.0,58,0.00,,,0.00,141,weatherlink.com 1.10,2013-02-12 18:48:00,
2013-02-12 14:03:00,50.1,35.0,30.02,NNW,343,2.0,4.0,56,0.00,,,0.00,111,weatherlink.com 1.10,2013-02-12 19:03:00,
2013-02-12 14:18:00,50.1,36.0,30.01,NW,315,2.0,3.0,58,0.00,,,0.00,98,weatherlink.com 1.10,2013-02-12 19:18:00,
2013-02-12 14:33:00,50.0,37.0,30.02,NW,322,1.0,3.0,61,0.00,,,0.00,74,weatherlink.com 1.10,2013-02-12 19:33:00,
2013-02-12 14:48:00,49.8,36.0,30.03,WNW,283,0.0,3.0,59,0.00,,,0.00,63,weatherlink.com 1.10,2013-02-12 19:48:00,
2013-02-12 15:03:00,49.5,38.0,30.03,SW,230,0.0,2.0,64,0.00,,,0.00,83,weatherlink.com 1.10,2013-02-12 20:03:00,
2013-02-12 15:18:00,49.4,37.0,30.02,SW,223,0.0,1.0,62,0.00,,,0.00,83,weatherlink.com 1.10,2013-02-12 20:18:00,
2013-02-12 15:33:00,49.7,38.0,30.02,SW,223,0.0,0.0,65,0.00,,,0.00,40,weatherlink.com 1.10,2013-02-12 20:33:00,
2013-02-12 15:48:00,49.5,40.0,30.01,SW,223,0.0,0.0,69,0.00,,,0.00,83,weatherlink.com 1.10,2013-02-12 20:48:00,
2013-02-12 16:03:00,49.5,38.0,30.01,SW,223,0.0,0.0,64,0.00,,,0.00,84,weatherlink.com 1.10,2013-02-12 21:03:00,
2013-02-12 16:18:00,49.6,37.0,29.99,SW,223,0.0,0.0,62,0.00,,,0.00,65,weatherlink.com 1.10,2013-02-12 21:18:00,
2013-02-12 16:33:00,49.3,39.0,30.01,SW,234,2.0,2.0,69,0.00,,,0.00,21,weatherlink.com 1.10,2013-02-12 21:33:00,
2013-02-12 16:48:00,48.5,40.0,30.01,SW,234,0.0,2.0,72,0.00,,,0.00,28,weatherlink.com 1.10,2013-02-12 21:48:00,
2013-02-12 17:03:00,48.0,41.0,29.97,NE,49,0.0,3.0,77,0.01,,,0.01,37,weatherlink.com 1.10,2013-02-12 22:03:00,
2013-02-12 17:18:00,47.3,42.0,29.94,SE,135,1.0,3.0,83,0.01,,,0.01,30,weatherlink.com 1.10,2013-02-12 22:18:00,
2013-02-12 17:33:00,46.6,42.0,29.94,South,189,2.0,3.0,83,0.01,,,0.01,11,weatherlink.com 1.10,2013-02-12 22:33:00,
2013-02-12 17:48:00,46.2,42.0,29.94,SW,215,4.0,5.0,84,0.01,,,0.01,5,weatherlink.com 1.10,2013-02-12 22:48:00,
2013-02-12 18:03:00,46.3,41.0,29.94,South,191,3.0,4.0,82,0.00,,,0.01,0,weatherlink.com 1.10,2013-02-12 23:03:00,
2013-02-12 18:18:00,45.9,42.0,29.97,SSE,162,2.0,6.0,85,0.01,,,0.02,0,weatherlink.com 1.10,2013-02-12 23:18:00,
2013-02-12 18:33:00,45.4,42.0,29.99,SSW,206,1.0,4.0,87,0.03,,,0.04,0,weatherlink.com 1.10,2013-02-12 23:33:00,
2013-02-12 18:48:00,44.9,42.0,29.98,West,279,2.0,2.0,89,0.04,,,0.05,0,weatherlink.com 1.10,2013-02-12 23:48:00,
2013-02-12 19:02:00,44.2,42.0,29.97,NNW,341,3.0,4.0,91,0.05,,,0.06,0,weatherlink.com 1.10,2013-02-13 00:02:00,
2013-02-12 19:19:00,43.8,42.0,29.97,NNW,340,1.0,3.0,92,0.05,,,0.07,0,weatherlink.com 1.10,2013-02-13 00:19:00,
2013-02-12 19:33:00,43.7,42.0,29.96,NNW,341,2.0,3.0,92,0.03,,,0.07,0,weatherlink.com 1.10,2013-02-13 00:33:00,
2013-02-12 19:48:00,43.4,42.0,29.95,South,178,1.0,3.0,93,0.04,,,0.09,0,weatherlink.com 1.10,2013-02-13 00:48:00,
2013-02-12 20:04:00,43.3,41.0,29.94,SSE,161,0.0,2.0,92,0.03,,,0.09,0,weatherlink.com 1.10,2013-02-13 01:04:00,
2013-02-12 20:19:00,43.5,42.0,29.94,SSW,205,3.0,4.0,93,0.02,,,0.09,0,weatherlink.com 1.10,2013-02-13 01:19:00,
2013-02-12 20:34:00,43.4,42.0,29.95,SSW,202,5.0,5.0,93,0.02,,,0.09,0,weatherlink.com 1.10,2013-02-13 01:34:00,
2013-02-12 20:49:00,43.2,41.0,29.94,SSE,161,1.0,3.0,93,0.00,,,0.09,0,weatherlink.com 1.10,2013-02-13 01:49:00,
2013-02-12 21:19:00,43.2,41.0,29.94,ESE,117,3.0,6.0,91,0.00,,,0.09,0,weatherlink.com 1.10,2013-02-13 02:19:00,
2013-02-12 21:33:00,43.5,41.0,29.95,NW,323,1.0,4.0,91,0.00,,,0.09,0,weatherlink.com 1.10,2013-02-13 02:33:00,
2013-02-12 21:49:00,43.4,41.0,29.93,NNW,333,0.0,4.0,92,0.01,,,0.10,0,weatherlink.com 1.10,2013-02-13 02:49:00,
2013-02-12 22:03:00,43.2,41.0,29.91,NE,54,0.0,2.0,93,0.02,,,0.11,0,weatherlink.com 1.10,2013-02-13 03:03:00,
2013-02-12 22:19:00,43.1,41.0,29.91,NNE,28,1.0,2.0,93,0.02,,,0.11,0,weatherlink.com 1.10,2013-02-13 03:19:00,
2013-02-12 22:34:00,42.9,41.0,29.90,ESE,103,1.0,3.0,94,0.03,,,0.12,0,weatherlink.com 1.10,2013-02-13 03:34:00,
2013-02-12 22:49:00,44.0,40.0,29.89,South,169,6.0,12.0,85,0.02,,,0.12,0,weatherlink.com 1.10,2013-02-13 03:49:00,
2013-02-12 23:03:00,44.2,39.0,29.89,East,101,3.0,13.0,83,0.01,,,0.12,0,weatherlink.com 1.10,2013-02-13 04:03:00,
2013-02-12 23:18:00,44.1,39.0,29.90,SSE,155,6.0,13.0,82,0.01,,,0.12,0,weatherlink.com 1.10,2013-02-13 04:18:00,
2013-02-12 23:33:00,43.4,39.0,29.89,SE,138,3.0,8.0,85,0.01,,,0.13,0,weatherlink.com 1.10,2013-02-13 04:33:00,
2013-02-12 23:48:00,42.7,39.0,29.88,South,177,4.0,4.0,88,0.01,,,0.13,0,weatherlink.com 1.10,2013-02-13 04:48:00,